sat.trackr.live / text

‹ back to catalog

STARLINK-33591

NORAD 62777 · 2025-015V

PAYLOAD ACTIVE UNKNOWN

§ Identity

Operator
Country
US
Launch date
2025-01-21
Launch site
AFWTR
Launch vehicle
Mass (kg)
RCS (m²)

Purposes: comms

External: N2YO · Heavens-Above · Gunter

§ Orbital elements

Epoch: 2026-05-24T19:43:34.857408Z

Period
93.85 min
Inclination
53.1589°
Eccentricity
0.0001049
Mean motion
15.34403835 rev/d
Perigee alt
462.0 km
Apogee alt
463.4 km
Semi-major
6,840.8 km
B*
6.3312e-4
RAAN
328.3828°
Arg perigee
81.5594°
Mean anomaly
278.5528°
Rev number
7,614

§ Raw data

STARLINK-335911 62777U 25015V   26144.82193122  .00021077  00000+0  63312-3 0  99912 62777  53.1589 328.3828 0001049  81.5594 278.5528 15.34403835 76143

JSON: /api/v1/satellites/62777 · /tle

For live sub-satellite position, see the globe view (requires WebGL).

§ Visibility from observer

Set your observer location to see the next 7 days of passes ≥ 10°. The values pass through the URL so the page stays shareable.

No JS? Fill the form by hand. The geolocation button needs JavaScript.